TIANTONG-1 1

导读 | 星芒AI

天通一号01星(TIANTONG-1 1)是中国自主研发的第一颗移动通信卫星,于2016年8月6日成功发射。该卫星属于中国天通系列,主要提供话音、数据等移动通信服务,填补了中国在卫星移动通信领域的空白。它采用东方红四号平台,具有覆盖范围广、通信容量大、抗干扰能力强等特点,广泛应用于应急通信、海洋监测、航空通信等领域,提升了中国在空间信息应用方面的能力。

基本信息
目录编号:
41725
目录名称:
TIANTONG-1 1
国际标识:
2016-048A
轨道中心:
EARTH
卫星名称:
TIANTONG-1 1
卫星全名:
--
卫星状态:
在轨 (已飞行3372 天)
发射日期:
2016-08-05 UTC
国别 :
中国 (CN)
星等 :
--
轨道信息
数据来源 国际轨道数据 AOE轨道数据
星历时间 2025-10-29T18:04:36+0800
7小时前
查看轨道信息
2025-10-28T04:00:00+0800
1天前
查看轨道信息
半长轴 42163.579km 42165.541km
偏心率 0.0000635 0.0000311
轨道倾角 3.417° 3.413°
近地点辐角 35.172° 354.191°
升交点赤经 40.819° 40.786°
平近点角 214.564° 42.828°
近地点 35782.766km 35786.094km
远地点 35788.122km 35788.718km
周期 1436.038分钟 1436.138分钟
每日圈数 1.002759 1.002689
详细信息
使用方式:
暂无
2D轨道图
3D轨道图
轨道高度分析图
轨道倾角分析图
轨道综合分析图
查看轨道综合分析图